Content
SEND FEEDBACK

Daily
Averages
Monthly
Summary
United States of America

LAS CRUCES, NEW MEXICO


Home > North America > United States > New Mexico
Elevation: 4044 feet     Latitude: 32 19N     Longitude: 106 46W

WEATHER
 
SELECT A DAY
Number of Records: 349,147;   Date Range: 1/2/95 - 8/30/14
 
SHARE

PRINT THIS DATA

[ ← Previous Day ]
WEATHER ALMANAC - JANUARY 31, 2013
[ Next Day → ]
[ °C ]   °F
Weather ElementAverageHighLow
Temperature40.4 °F56.1 °F (2:15 pm)23 °F (4:15 am)
Dewpoint15 °F19.4 °F (11:15 am)11.8 °F (4:15 am)
Humidity38.6 %62 % (3:55 am)20 % (2:15 pm)
Barometer30.25 in30.30 in (8:55 am)30.21 in (2:15 pm)
Wind Speed4.8 mph10.4 mph (9:55 am)
Weather ElementAverage
Visibility10 mi
Wind DirectionSSW (194 °)

Weather ElementTotal
Precipitation---
Heating Degree Days25.5 (Base 65)
Averaged from 70 records on January 31, 2013
WEATHER CONDITIONS BREAKOUT
WIND DIRECTION BREAKOUT
WEATHER BY HOUR - JANUARY 31, 2013
[ °C ]   °F
Local TimeTemperatureDewpointHumidityBarometerVisibilityWind DirectionWind SpeedGust SpeedPrecipitationEventsConditions
12:55 AM27.5 °F13.5 °F56 %30.24 in10.0 miWNW (300°)5.8 mphClear
1:15 AM27.1 °F13.1 °F56 %30.24 in10.0 miNW (310°)6.9 mphClear
1:35 AM27.1 °F13.5 °F56 %30.25 in10.0 miNW (320°)4.6 mphClear
1:55 AM29.1 °F14.0 °F53 %30.24 in10.0 miNW (310°)6.9 mphClear
2:15 AM30.6 °F14.9 °F52 %30.24 in10.0 miCalmClear
2:35 AM27.1 °F14.0 °F58 %30.24 in10.0 miNNW (340°)3.5 mphClear
2:55 AM26.8 °F13.5 °F57 %30.25 in10.0 miCalmClear
3:15 AM28.8 °F14.4 °F55 %30.25 in10.0 miCalmClear
3:35 AM27.0 °F13.6 °F57 %30.25 in10.0 miCalmClear
3:55 AM24.6 °F13.1 °F62 %30.24 in10.0 miCalmClear
4:15 AM23.0 °F11.8 °F62 %30.24 in10.0 miCalmClear
4:35 AM23.7 °F12.4 °F62 %30.24 in10.0 miWNW (300°)4.6 mphClear
4:55 AM26.6 °F13.1 °F57 %30.24 in10.0 miNW (310°)6.9 mphClear
5:15 AM27.0 °F13.5 °F57 %30.25 in10.0 miNW (310°)8.1 mphClear
5:35 AM25.5 °F13.1 °F59 %30.25 in10.0 miNW (320°)4.6 mphClear
5:55 AM25.5 °F13.1 °F59 %30.25 in10.0 miWNW (300°)4.6 mphClear
6:15 AM24.6 °F12.9 °F61 %30.25 in10.0 miNNW (330°)6.9 mphClear
6:35 AM25.2 °F12.9 °F60 %30.26 in10.0 miNW (310°)5.8 mphClear
6:55 AM24.8 °F12.6 °F60 %30.27 in10.0 miNNW (330°)9.2 mphClear
7:15 AM25.9 °F13.3 °F59 %30.28 in10.0 miNNW (340°)8.1 mphClear
7:35 AM29.3 °F14.7 °F55 %30.28 in10.0 miNorth (350°)5.8 mphClear
7:55 AM32.9 °F16.3 °F51 %30.28 in10.0 miNorth (350°)3.5 mphClear
8:15 AM36.5 °F17.1 °F45 %30.28 in10.0 miNorth (10°)3.5 mphClear
8:35 AM40.1 °F16.3 °F38 %30.29 in10.0 miNNE (20°)5.8 mphClear
8:55 AM43.0 °F16.9 °F35 %30.30 in10.0 miNNE (20°)6.9 mphClear
9:15 AM41.4 °F16.2 °F36 %30.30 in10.0 miNNE (30°)6.9 mphClear
9:35 AM42.6 °F16.0 °F34 %30.29 in10.0 miENE (60°)4.6 mphClear
9:55 AM45.5 °F17.4 °F33 %30.29 in10.0 miNE (40°)10.4 mphClear
10:15 AM46.6 °F17.8 °F32 %30.29 in10.0 miNE (50°)10.4 mphClear
10:35 AM48.2 °F18.5 °F31 %30.28 in10.0 miNE (50°)6.9 mphClear
10:55 AM49.5 °F19.2 °F30 %30.27 in10.0 miNNE (30°)5.8 mphClear
11:15 AM50.4 °F19.4 °F30 %30.28 in10.0 miNE (40°)5.8 mphClear
11:35 AM49.8 °F19.2 °F30 %30.28 in10.0 miNE (50°)4.6 mphClear
11:55 AM51.8 °F19.4 °F28 %30.27 in10.0 miNNE (20°)3.5 mphClear
12:15 PM51.6 °F19.4 °F28 %30.27 in10.0 miSSE (150°)3.5 mphClear
12:35 PM52.0 °F19.4 °F28 %30.27 in10.0 miNE (40°)6.9 mphClear
12:55 PM52.7 °F19.0 °F27 %30.25 in10.0 miNE (50°)6.9 mphClear
1:15 PM53.4 °F18.5 °F25 %30.25 in10.0 miCalmClear
1:35 PM53.8 °F18.3 °F25 %30.23 in10.0 miNorth (350°)4.6 mphClear
1:55 PM55.2 °F15.1 °F21 %30.23 in10.0 miNorth (10°)6.9 mphClear
2:15 PM56.1 °F15.4 °F20 %30.21 in10.0 miNorth (360°)8.1 mphClear
2:35 PM55.8 °F15.6 °F21 %30.21 in10.0 miNorth (360°)6.9 mphClear
2:55 PM54.9 °F15.8 °F21 %30.22 in10.0 miNNE (20°)4.6 mphClear
3:15 PM55.2 °F16.3 °F22 %30.21 in10.0 miNorth (360°)3.5 mphClear
3:35 PM55.0 °F16.3 °F22 %30.22 in10.0 miNNE (30°)5.8 mphClear
3:55 PM54.5 °F16.7 °F23 %30.22 in10.0 miCalmClear
4:15 PM54.9 °F16.2 °F22 %30.22 in10.0 miNorth (360°)4.6 mphClear
4:35 PM54.9 °F14.9 °F21 %30.21 in10.0 miNorth (360°)6.9 mphClear
4:55 PM54.7 °F14.4 °F20 %30.21 in10.0 miNNE (20°)4.6 mphClear
5:15 PM53.4 °F14.4 °F21 %30.21 in10.0 miNNW (340°)3.5 mphClear
5:35 PM50.9 °F14.0 °F23 %30.21 in10.0 miNNW (340°)3.5 mphClear
5:55 PM48.7 °F13.6 °F25 %30.21 in10.0 miNNW (330°)3.5 mphClear
6:15 PM46.0 °F13.1 °F27 %30.21 in10.0 miNorth (350°)4.6 mphClear
6:35 PM45.0 °F12.9 °F27 %30.21 in10.0 miNNW (330°)4.6 mphClear
6:55 PM42.8 °F12.2 °F29 %30.21 in10.0 miNNW (330°)3.5 mphClear
7:15 PM41.0 °F12.0 °F31 %30.23 in10.0 miCalmClear
7:35 PM40.3 °F12.0 °F32 %30.24 in10.0 miCalmClear
7:55 PM40.8 °F12.2 °F31 %30.24 in10.0 miWest (280°)3.5 mphClear
8:15 PM41.0 °F12.7 °F32 %30.24 in10.0 miWest (270°)6.9 mphClear
8:35 PM41.4 °F13.8 °F33 %30.24 in10.0 miWest (270°)9.2 mphClear
8:55 PM41.9 °F14.5 °F33 %30.25 in10.0 miWest (270°)5.8 mphClear
9:15 PM42.1 °F15.3 °F34 %30.27 in10.0 miWest (270°)4.6 mphClear
9:35 PM41.2 °F15.3 °F35 %30.27 in10.0 miWest (270°)3.5 mphClear
9:55 PM40.1 °F14.9 °F36 %30.26 in10.0 miWest (280°)6.9 mphClear
10:15 PM39.0 °F14.5 °F37 %30.26 in10.0 miWest (280°)4.6 mphClear
10:35 PM37.6 °F13.8 °F38 %30.26 in10.0 miCalmClear
10:55 PM36.7 °F13.3 °F38 %30.25 in10.0 miNNW (330°)3.5 mphClear
11:15 PM36.5 °F14.5 °F41 %30.25 in10.0 miNNW (330°)5.8 mphClear
11:35 PM35.1 °F14.4 °F43 %30.24 in10.0 miNNW (340°)8.1 mphClear
11:55 PM33.6 °F14.0 °F45 %30.24 in10.0 miNorth (350°)4.6 mphClear
Hourly data recorded from KLRU, located miles away from Las Cruces, New Mexico







STORIES FROM OUR PARTNERS